CDT,Max TemperatureF,Mean TemperatureF,Min TemperatureF,Max Dew PointF,MeanDew PointF,Min DewpointF,Max Humidity, Mean Humidity, Min Humidity, Max Sea Level PressureIn, Mean Sea Level PressureIn, Min Sea Level PressureIn, Max VisibilityMiles, Mean VisibilityMiles, Min VisibilityMiles, Max Wind SpeedMPH, Mean Wind SpeedMPH, Max Gust SpeedMPH,PrecipitationIn, CloudCover, Events, WindDirDegrees
2012-10-1,69,60,48,50,37,27,77,44,23,30.05,29.99,29.89,10,10,10,25,12,34,0.00,1,Rain,5
2012-10-2,73,54,35,34,29,25,87,41,16,30.01,29.90,29.79,10,10,10,17,5,24,0.00,0,,226
2012-10-3,78,60,42,34,30,27,61,35,15,29.87,29.81,29.69,10,10,7,17,7,24,0.00,0,,183
2012-10-4,64,50,37,43,35,30,93,71,34,30.43,30.07,29.69,10,10,7,31,19,40,0.00,7,,333
2012-10-5,44,36,28,30,26,25,93,66,46,30.26,30.23,30.21,10,10,10,23,13,32,0.00,4,,336
2012-10-6,42,36,30,30,26,21,87,67,46,30.36,30.30,30.25,10,10,10,21,12,28,0.00,5,,350
2012-10-7,57,42,26,23,20,18,80,48,21,30.25,30.04,29.83,10,10,10,14,8,24,0.00,1,,253
2012-10-8,66,50,35,41,30,19,66,47,31,29.83,29.70,29.58,10,10,10,24,8,32,0.00,4,,259
2012-10-9,50,44,37,37,29,23,76,57,46,30.04,29.88,29.75,10,10,10,23,9,31,0.00,7,Rain,331
2012-10-10,57,42,28,30,26,21,93,54,26,30.11,30.00,29.77,10,10,10,15,5,22,0.00,3,,274
2012-10-11,57,44,30,36,27,18,87,57,32,30.42,30.17,29.81,10,10,10,20,12,26,0.00,1,,9
2012-10-12,55,37,19,25,19,16,86,51,21,30.43,30.26,29.91,10,10,10,21,6,28,0.00,2,,194
2012-10-13,60,53,44,50,45,21,100,75,28,29.91,29.75,29.66,10,8,4,24,8,29,0.00,3,,202
2012-10-14,57,46,35,43,35,32,100,67,41,29.95,29.87,29.77,10,10,3,22,10,29,0.00,1,,354
2012-10-15,66,47,28,39,36,27,93,60,35,29.95,29.85,29.64,10,10,10,15,6,20,0.00,0,,217
2012-10-16,73,62,50,46,43,39,71,51,36,29.63,29.48,29.32,10,10,7,12,5,,0.00,1,,240
2012-10-17,57,50,42,52,45,41,100,83,67,29.35,29.25,29.09,10,9,4,22,11,34,0.11,7,Rain,303
2012-10-18,46,42,39,46,43,39,100,98,81,29.45,29.30,29.19,10,5,1,31,16,44,0.41,8,Rain,346
2012-10-19,42,40,39,43,42,39,100,100,100,29.77,29.66,29.45,10,8,2,30,20,40,0.02,8,Rain,359
2012-10-20,51,45,39,46,43,39,100,94,76,29.80,29.75,29.71,10,10,3,15,4,17,0.00,5,,199
2012-10-21,57,50,42,48,45,41,100,90,67,29.95,29.79,29.69,10,9,4,15,9,18,0.00,0,,122
2012-10-22,57,50,42,50,47,43,100,87,72,29.98,29.93,29.84,10,8,2,18,10,25,0.00,4,,74
2012-10-23,60,56,51,61,55,48,100,94,82,29.84,29.73,29.65,10,4,0,12,7,,0.02,8,Fog-Rain-Thunderstorm,176
2012-10-24,57,48,39,55,43,37,100,89,71,29.92,29.88,29.81,10,10,7,22,11,30,0.00,8,,7
2012-10-25,39,36,32,37,30,27,100,83,65,30.22,30.01,29.85,10,8,2,23,18,32,0.00,7,Snow,354
2012-10-26,39,36,33,27,26,23,75,68,56,30.39,30.34,30.22,10,10,10,15,10,23,0.00,7,,313
2012-10-27,42,33,24,28,25,21,93,71,42,30.36,30.31,30.26,10,10,10,12,5,16,0.00,4,,236
2012-10-28,48,40,33,34,31,27,87,73,54,30.30,30.25,30.19,10,10,10,12,7,18,0.00,6,Snow,193
2012-10-29,53,44,35,32,30,27,81,63,41,30.22,30.18,30.15,10,10,10,18,13,23,0.00,4,,177
2012-10-30,46,38,30,34,29,27,93,69,53,30.19,30.15,30.08,10,10,10,13,7,,0.00,6,,156
2012-10-31,55,42,30,37,33,30,100,69,41,30.10,30.01,29.94,10,10,3,9,2,,0.00,3,,214